This is the latest recevied weather packets stored in our database for station/object HI3RRR-13. If no packets are shown the sender has not sent any weather packets the latest 10 day(s).
| Time | Temp. | Humidity | Pressure | Rain* | Wind** | Luminosity | Snow |
|---|---|---|---|---|---|---|---|
| 1788620638 | 31.67° C | 63% | 1014 hPa | 0 mm | - | - | - |
| 1788620037 | 31.11° C | 64% | 1014 hPa | 0 mm | - | - | - |
| 1788619436 | 31.67° C | 58% | 1014 hPa | 0 mm | - | - | - |
| 1788618836 | 30.56° C | 69% | 1014 hPa | 0 mm | - | - | - |
| 1788618235 | 30.56° C | 70% | 1014 hPa | 0 mm | - | - | - |
| 1788617635 | 30° C | 73% | 1014 hPa | 0 mm | - | - | - |
| 1788617034 | 28.89° C | 79% | 1014 hPa | 0 mm | - | - | - |
| 1788616433 | 28.89° C | 79% | 1014 hPa | 0 mm | - | - | - |
| 1788615833 | 28.33° C | 70% | 1014 hPa | 0 mm | - | - | - |
| 1788615232 | 28.33° C | 78% | 1014 hPa | 0 mm | - | - | - |
| 1788614632 | 28.33° C | 80% | 1014 hPa | 0 mm | - | - | - |
| 1788614031 | 28.33° C | 83% | 1014 hPa | 0 mm | - | - | - |
| 1788613430 | 28.33° C | 91% | 1014 hPa | 0 mm | - | - | - |
| 1788612829 | 28.33° C | 91% | 1014 hPa | 0 mm | - | - | - |
| 1788612229 | 25.56° C | 83% | 1014 hPa | 0 mm | - | - | - |
| 1788611628 | 25.56° C | 83% | 1014 hPa | 0 mm | - | - | - |
| 1788611028 | 25.56° C | 83% | 1014 hPa | 0 mm | - | - | - |
| 1788610427 | 25.56° C | 84% | 1014 hPa | 0 mm | - | - | - |
| 1788609826 | 25.56° C | 87% | 1014 hPa | 0 mm | - | - | - |
| 1788609226 | 24.44° C | 96% | 1014 hPa | 0 mm | - | - | - |
| 1788608625 | 22.78° C | 96% | 1014 hPa | 0 mm | - | - | - |
| 1788608024 | 22.78° C | 96% | 1014 hPa | 0 mm | - | - | - |
| 1788607424 | 22.78° C | 97% | 1014 hPa | 0 mm | - | - | - |
| 1788606823 | 22.78° C | 97% | 1014 hPa | 0 mm | - | - | - |
| 1788606223 | 22.78° C | 10% | - | 0 mm | - | - | - |
* Rain latest hour (hover to see other rain measurements)
** Current wind speed in m/s (hover to see current wind gust speed)